User: anonymous   Login
Location: Mercogliano
(40.9167°N, 14.7333°E)
Time: 04:03:32
(UTC+00:00)
Language:

Meteor 1-12 Rocket - Orbit

View from above orbital plane
View from above orbital plane
View from above satellite
View from above satellite

Ground track
Ground track

The orbit data is extracted from the following two-line orbital elements,

1  6080U 72049B   20333.38643925 +.00000004 +00000-0 -53606-5 0  9997
2  6080 081.2410 217.6754 0048446 316.5452 043.1899 14.00922081473382
Epoch (UTC): 28 November 2020 09:16:28
Eccentricity: 0.0048446
inclination: 81.2410°
perigee height: 855 km
apogee height: 926 km
right ascension of ascending node: 217.6754°
argument of perigee: 316.5452°
revolutions per day: 14.00922081
mean anomaly at epoch: 43.1899°
orbit number at epoch: 47338

The dashed part of the orbit path shows where the satellite is in the earth's shadow,  

DLR